Radioactive Concentration measured by Seawater Radiation Monitor near Fukushima Daiichi Nuclear Power Station
Date,Time,Cs137(Bq/L),Cs134(Bq/L),Total β(Bq/L)
2018/03/05,00:00,1.2,0.068,ND
2018/03/05,00:10,1.2,0.072,ND
2018/03/05,00:20,1.2,0.078,ND
2018/03/05,00:30,1.2,0.083,ND
2018/03/05,00:40,1.2,0.054,ND
2018/03/05,00:50,1.3,0.047,ND
2018/03/05,01:00,1.3,0.047,ND
2018/03/05,01:10,1.2,0.060,ND
2018/03/05,01:20,1.2,0.056,ND
2018/03/05,01:30,1.2,0.051,ND
2018/03/05,01:40,1.2,0.043,ND
2018/03/05,01:50,1.2,0.046,ND
2018/03/05,02:00,1.2,0.026,ND
2018/03/05,02:10,1.2,0.042,ND
2018/03/05,02:20,1.2,0.044,ND
2018/03/05,02:30,1.2,0.048,ND
2018/03/05,02:40,1.2,0.030,ND
2018/03/05,02:50,1.2,0.058,ND
2018/03/05,03:00,1.1,0.083,ND
2018/03/05,03:10,1.2,0.073,ND
2018/03/05,03:20,1.2,0.075,ND
2018/03/05,03:30,1.2,0.073,ND
2018/03/05,03:40,1.1,0.082,ND
2018/03/05,03:50,1.2,0.068,ND
2018/03/05,04:00,1.2,0.071,ND
2018/03/05,04:10,1.2,0.062,ND
2018/03/05,04:20,1.2,0.062,ND
2018/03/05,04:30,1.2,0.055,ND
2018/03/05,04:40,1.2,0.071,ND
2018/03/05,04:50,1.2,0.072,ND
2018/03/05,05:00,1.3,0.030,ND
2018/03/05,05:10,1.2,0.068,ND
2018/03/05,05:20,1.2,0.054,ND
2018/03/05,05:30,1.2,0.070,ND
2018/03/05,05:40,1.2,0.070,ND
2018/03/05,05:50,1.2,0.070,ND
2018/03/05,06:00,1.2,0.076,ND
2018/03/05,06:10,1.3,0.079,ND
2018/03/05,06:20,1.3,0.082,ND
2018/03/05,06:30,1.3,0.074,ND
2018/03/05,06:40,1.3,0.074,ND
2018/03/05,06:50,1.4,0.052,ND
2018/03/05,07:00,1.3,0.081,ND
2018/03/05,07:10,1.3,0.085,ND
2018/03/05,07:20,1.3,0.075,ND
2018/03/05,07:30,1.3,0.087,ND
2018/03/05,07:40,1.3,0.081,ND
2018/03/05,07:50,1.3,0.087,ND
2018/03/05,08:00,1.3,0.080,ND
2018/03/05,08:10,1.3,0.081,ND
2018/03/05,08:20,1.4,0.088,ND
2018/03/05,08:30,1.3,0.087,ND
2018/03/05,08:40,1.4,0.064,ND
2018/03/05,08:50,1.3,0.11,ND
2018/03/05,09:00,1.3,0.10,ND
2018/03/05,09:10,1.3,0.11,ND
2018/03/05,09:20,1.2,0.11,ND
2018/03/05,09:30,1.3,0.11,ND
2018/03/05,09:40,1.3,0.087,9.3
2018/03/05,09:50,1.3,0.058,ND
2018/03/05,10:00,1.3,0.082,9.3
2018/03/05,10:10,1.3,0.052,12
2018/03/05,10:20,1.3,0.046,11
2018/03/05,10:30,1.3,0.045,11
2018/03/05,10:40,1.2,0.082,9.5
2018/03/05,10:50,1.2,0.078,10
2018/03/05,11:00,1.2,0.078,ND
2018/03/05,11:10,1.2,0.091,ND
2018/03/05,11:20,1.2,0.10,ND
2018/03/05,11:30,1.3,0.058,ND
2018/03/05,11:40,1.2,0.091,ND
2018/03/05,11:50,1.3,0.057,ND
2018/03/05,12:00,1.3,0.054,ND
2018/03/05,12:10,1.3,0.081,9.0
2018/03/05,12:20,1.3,0.058,8.8
2018/03/05,12:30,1.3,0.062,ND
2018/03/05,12:40,1.3,0.099,9.7
2018/03/05,12:50,1.3,0.10,ND
2018/03/05,13:00,1.3,0.11,9.3
2018/03/05,13:10,1.3,0.084,ND
2018/03/05,13:20,1.4,0.068,ND
2018/03/05,13:30,1.3,0.077,ND
2018/03/05,13:40,1.4,0.065,ND
2018/03/05,13:50,1.3,0.061,ND
2018/03/05,14:00,1.2,0.087,ND
2018/03/05,14:10,1.3,0.052,ND
2018/03/05,14:20,1.3,0.083,ND
2018/03/05,14:30,1.3,0.077,ND
2018/03/05,14:40,1.2,0.096,ND
2018/03/05,14:50,1.3,0.080,ND
2018/03/05,15:00,1.3,0.089,ND
2018/03/05,15:10,1.3,0.086,ND
2018/03/05,15:20,1.4,0.051,ND
2018/03/05,15:30,1.3,0.081,9.2
2018/03/05,15:40,1.3,0.081,ND
2018/03/05,15:50,1.3,0.055,ND
2018/03/05,16:00,1.3,0.048,ND
2018/03/05,16:10,1.2,0.080,ND
2018/03/05,16:20,1.3,0.050,ND
2018/03/05,16:30,1.3,0.052,ND
2018/03/05,16:40,1.2,0.095,ND
2018/03/05,16:50,1.3,0.089,ND
2018/03/05,17:00,1.2,0.11,9.0
2018/03/05,17:10,1.2,0.11,ND
2018/03/05,17:20,1.2,0.11,ND
2018/03/05,17:30,1.3,0.087,ND
2018/03/05,17:40,1.2,0.11,ND
2018/03/05,17:50,1.2,0.11,ND
2018/03/05,18:00,1.3,0.081,ND
2018/03/05,18:10,1.2,0.13,ND
2018/03/05,18:20,1.1,0.13,ND
2018/03/05,18:30,1.2,0.13,ND
2018/03/05,18:40,1.1,0.13,ND
2018/03/05,18:50,1.1,0.13,ND
2018/03/05,19:00,1.2,0.12,ND
2018/03/05,19:10,1.2,0.12,ND
2018/03/05,19:20,1.2,0.12,ND
2018/03/05,19:30,1.2,0.11,ND
2018/03/05,19:40,1.2,0.10,ND
2018/03/05,19:50,1.2,0.094,ND
2018/03/05,20:00,1.2,0.069,9.3
2018/03/05,20:10,1.2,0.092,ND
2018/03/05,20:20,1.2,0.089,ND
2018/03/05,20:30,1.2,0.088,ND
2018/03/05,20:40,1.2,0.098,ND
2018/03/05,20:50,1.3,0.10,ND
2018/03/05,21:00,1.3,0.11,ND
2018/03/05,21:10,1.3,0.11,ND
2018/03/05,21:20,1.3,0.11,ND
2018/03/05,21:30,1.3,0.11,ND
2018/03/05,21:40,1.3,0.10,ND
2018/03/05,21:50,1.3,0.11,ND
2018/03/05,22:00,1.3,0.12,ND
2018/03/05,22:10,1.3,0.11,ND
2018/03/05,22:20,1.3,0.10,ND
2018/03/05,22:30,1.3,0.10,ND
2018/03/05,22:40,1.3,0.10,ND
2018/03/05,22:50,1.3,0.11,9.6
2018/03/05,23:00,1.3,0.11,ND
2018/03/05,23:10,1.3,0.11,ND
2018/03/05,23:20,1.3,0.12,11
2018/03/05,23:30,1.3,0.12,12
2018/03/05,23:40,1.3,0.13,12
2018/03/05,23:50,1.3,0.12,ND
